Flag Weather past 2 weeks in Currie, Tasmania, Australia

Now
54 °F

Cool.


Feels Like: 54 °F
Forecast: 58 / 60 °F
Wind: No wind

Location: King Island Airport

Current Time: Nov 23, 2014 at 11:47:39 PM

Latest Report: Nov 23, 2014 at 11:00 PM


Visibility: N/A

Pressure: 29.92 "Hg

Humidity: 92%

Dew point: 52 °F

Location of CurrieLocation

Historic Weather in Currie — Graph

°F

Currie temperature yesterday

Maximum temperature yesterday: 77 °F (at 4:00 PM)
Minimum temperature yesterday: 48 °F (at 12:00 AM)
Average temperature yesterday: 61 °F

Past Weeks' High & Low Weather Summary

 TemperatureHumidityPressure
High77 °F (Nov 22, 4:00 PM)98% (Nov 13, 7:00 AM)30.29 "Hg (Nov 13, 7:00 AM)
Low39 °F (Nov 12, 5:00 AM)42% (Nov 22, 4:00 PM)29.62 "Hg (Nov 20, 6:00 PM)
Average57 °F76%29.95 "Hg
* Reported Nov 8 10:00 PM — Nov 23 10:00 PM, Currie, Weather by CustomWeather, © 2014

Note: Actual official high and low records may vary slightly from our data, if they occured in-between our weather recording intervals... More about our weather records

Advertising

Currie weather history for previous 24 hours

 ConditionsComfort  
Time TempWeatherWind HumidityBarometerVisibility
10:00 PM
Nov 23
54 °FCool.2 mph90%29.91 "HgN/A
9:00 PM57 °FCool.5 mph88%29.90 "HgN/A
8:00 PM59 °FCool.3 mph83%29.91 "HgN/A
7:00 PM61 °FCool.8 mph78%29.92 "HgN/A
6:00 PM62 °FScattered clouds.13 mph75%29.92 "HgN/A
5:00 PM62 °FMild.12 mph75%29.91 "HgN/A
4:00 PM63 °FMild.10 mph73%29.90 "HgN/A
3:00 PM64 °FPassing clouds.10 mph75%29.90 "HgN/A
2:00 PM63 °FMild.12 mph72%29.89 "HgN/A
1:00 PM62 °FCool.13 mph72%29.90 "HgN/A
12:00 PM63 °FPassing clouds.14 mph74%29.90 "HgN/A
11:00 AM62 °FCool.13 mph76%29.91 "HgN/A
10:00 AM61 °FCool.13 mph74%29.90 "HgN/A
9:00 AM60 °FPassing clouds.10 mph77%29.90 "HgN/A
7:00 AM57 °FCool.8 mph89%29.86 "HgN/A
6:00 AM56 °FPassing clouds.9 mph91%29.84 "HgN/A
5:00 AM56 °FCool.10 mph92%29.82 "HgN/A
4:00 AM56 °FCool.10 mph92%29.80 "HgN/A
3:00 AM56 °FCool.9 mph93%29.80 "HgN/A
2:00 AM57 °FCool.14 mph94%29.80 "HgN/A
1:00 AM57 °FCool.13 mph95%29.80 "HgN/A
12:00 AM58 °FPassing clouds.13 mph94%29.78 "HgN/A
11:00 PM
Nov 22
58 °FCool.12 mph92%29.76 "HgN/A
Weather by CustomWeather, © 2014

See weather overviewHow to use our weather pages